DECAYED

STARLINK-4688, 53714 (Decayed)

Orbit data source: Space-Track

STARLINK-4688, 53714 was a payload satellite owned by SpaceX/Seattle (US) in LEO that was launched on Mon, 05 Sep 2022 UTC via an FALCON 9 launch vehicle from the Air Force Eastern Test Range (AFETR). Payload-class satellites include a variety of spacecraft equipped with specific instruments for various scientific and technological missions. These include communications satellites like Starlink; space stations such as the ISS; scientific satellites like the Hubble; Earth observation satellites from companies like Planet Labs, Umbra, and HawkEye 360; GPS; miniature CubeSats for education and research; and military/defense satellites.

Not visible in the next 10 days
Identifier
53714, 2022-107Q
Orbit
Decayed
Country
Flag of USUS
Related business
Manufacturer
SpaceX/Seattle
Mission
Decayed Commercial Communications
Bus & Motor
STARLINK, Unknown motor
Mass
305 kg wet, ~290 kg dry
Launch date (UTC)
2022-09-05 (4 years ago)
Launch vehicle
FALCON 9
Launch site
Air Force Eastern Test Range (AFETR)
Object type
Payload
Rocket body
Debris
Shape & HBR
Box + 1 Pan, 10.1 m
Radar Cross Section
13.562 m², Large (>1 m²)

Expand to show TLE details & history
Last TLE update: 1 year ago

TLE from 1 year ago
0 STARLINK-4688
1 53714U 22107Q   25001.43903170  .15817723  12522-4  29573-3 0  9996
2 53714  53.2010 346.7018 0002283 212.6438 285.8411 16.47462503129372
Epoch: 2025-01-01T10:32Z
TLE epoch observation values (Epoch: 2025-01-01T10:32:12.338Z)
Latitude
32.18062°
Longitude
-120.58733°
Altitude
147.688 km
Speed
7.822 km/s
True Right ascension
09h 15m 11s
True Declination
32° 00' 41"
Sunlit
Object was in full shadow at epoch
Visualization orbit readout
Latitude
Unknown
Longitude
Unknown
Altitude
Unknown
Speed
Unknown
Apparent Right ascension
Unknown
Apparent Declination
Unknown
Sunlit
N/A
Visualization observer readout
Local Sidereal Time
21:30:32
Azimuth
Unknown
Elevation
Unknown
Doppler factor
Unknown
Orbital elements
Apogee altitude
147.778 km
Perigee altitude
144.799 km
Semi-major axis
6,524.425 km
Eccentricity
0.00023
Inclination
53.201°
RAAN
346.7018°
Arg. of periapsis
212.6438°
True anomaly
285.81593°
Mean anomaly
285.8411°
Eccentric anomaly
285.82852°
Mean motion
4.11841 °/min
Orbital period
87.41 mins
BSTAR
0.00029573
Loading maneuver chart data...
Computing Atmospheric mass density...
Loading historical data...
Loading historical data...
Loading historical data...
Loading historical data...
Loading historical data...
Loading historical data...
Loading historical data...

Documentation

Showing up to 5 results
|